SCP
0 0 0 0 0 0 0 0 0 0 0 0 0 0 0 0 0 0 0 0 0 0 0 0 0 0 0 0 0 0 0 0 0 0 0 0 0 0 0 0 0 0 0 0
0 0 0 0 0 0 0 0 0 0 0 0 0 0 0 0 0 0 0 0 0 0 0 0 0 0 0 0 0 0 0 0 0 0 0 0 0 0 0 0 0 0 0 0
0 0 0 0 0 0 0 0 0 0 0 0 0 0 0 0 0 0 0 0 0 0 0 0 0 0 0 0 0 0 0 0 0 0 0 0 0 0 0 0 0 0 0 0
0 0 0 0 0 0 0 0 0 0 0 0 0 0 0 0 0 0 0 0 0 0 0 0 0 0 0 0 0 0 0 0 0 0 0 0 0 0 0 0 0 0 0 0
0 0 0 0 0 0 0 0 0 0 0 0 0 0 0 0 0 0 0 0 0 0 0 0 0 0 0 0 0 0 0 0 0 0 0 0 0 0 0 0 0 0 0 0
0 0 0 0 0 0 0 0 0 0 0 0 0 0 0 0 0 0 0 0 0 0 0 0 0 0 0 0 0 0 0 0 0 0 0 0 0 0 0 0 0 0 0 0
0 0 0 0 0 0 0 0 0 0 0 0 0 0 0 0 0 0 0 0 0 0 0 0 0 0 0 0 0 0 0 0 1 0 0 0 0 0 0 0 0 0 0 0
0 0 0 0 0 0 0 0 0 0 0 0 0 0 0 0 0 0 0 0 0 0 0 0 0 0 0 0 0 0 0 0 0 0 0 0 0 0 0 0 0 0 0 0
0 0 0 0 0 0 0 0 0 0 0 0 0 0 0 0 0 0 0 0 0 0 0 0 0 0 0 0 0 0 0 0 0 0 0 0 0 0 0 0 0 0 0 0
0 0 0 0 0 0 0 0 0 0 0 0 0 0 0 0 0 0 0 0 0 0 0 0 0 0 0 0 0 0 0 0 0 0 0 0 0 0 0 0 0 0 0 0
0 0 0 0 0 0 0 0 0 0 0 0 0 0 0 0 0 0 0 0 1 0 0 0 0 0 0 0 0 0 0 0 0 0 0 0 0 0 0 0 0 0 0 0
0 0 0 0 0 0 0 0 0 0 0 0 0 0 0 0 0 0 0 1 1 1 0 0 0 0 0 0 0 0 0 0 0 0 0 0 0 0 0 0 0 0 0 0
0 0 0 0 0 0 0 0 0 0 0 0 0 0 0 0 0 0 1 1 1 1 0 0 0 0 0 0 0 0 0 0 0 0 0 0 0 0 0 0 0 0 0 0
0 0 0 0 0 0 0 0 0 0 0 0 0 0 0 0 0 1 1 1 1 1 0 0 0 1 1 1 0 0 0 0 0 0 0 0 0 0 0 0 0 0 0 0
0 0 0 0 0 0 0 0 0 0 0 0 0 0 0 0 0 1 1 1 1 1 0 0 1 1 1 1 1 0 0 0 0 0 0 0 0 0 0 0 0 0 0 0
0 0 0 0 0 0 0 0 0 0 0 0 0 0 0 0 1 1 1 1 1 0 0 0 0 0 0 0 0 0 0 0 0 0 0 0 0 0 0 0 0 0 0 0
0 0 0 0 0 0 0 0 0 0 0 0 0 0 0 0 1 1 1 0 0 0 0 0 0 0 0 0 0 0 0 0 0 0 1 1 1 1 0 0 0 0 0 0
0 0 0 0 0 0 0 0 0 0 0 0 0 0 0 0 0 0 0 0 0 0 0 0 0 0 0 0 0 0 0 0 0 0 1 1 1 1 0 0 0 0 0 1
0 0 0 0 0 0 0 0 0 0 0 0 0 0 0 0 0 0 0 0 0 0 0 0 0 0 0 0 0 0 0 0 0 1 1 1 1 1 0 0 0 0 0 0
0 0 0 0 0 0 0 0 0 0 0 0 0 0 0 0 0 0 0 0 0 0 0 0 0 0 0 0 0 1 1 1 1 1 0 0 0 0 0 0 0 0 0 0
0 0 0 0 0 0 0 0 0 0 0 0 0 0 1 1 0 0 0 0 0 0 0 1 1 1 1 1 1 1 1 1 1 1 1 0 0 0 0 0 0 0 0 0
0 0 0 0 0 0 0 0 0 0 0 0 1 1 1 1 0 0 0 0 0 0 1 1 1 1 1 1 1 1 1 1 1 1 1 1 0 0 0 0 0 0 0 0
0 0 0 0 0 0 0 0 0 0 0 1 1 1 1 0 0 0 0 0 0 0 0 1 1 1 1 1 1 1 1 1 1 1 1 1 1 0 0 0 0 0 0 0
0 0 0 0 0 0 0 0 0 0 0 0 0 0 0 0 0 0 0 0 0 0 0 1 1 1 1 1 1 1 1 1 1 1 1 1 0 0 0 0 0 0 0 0
0 0 0 0 0 0 0 0 0 0 0 0 0 0 0 0 0 0 0 0 0 0 0 0 1 1 1 1 1 1 0 0 0 0 0 0 0 0 0 0 0 0 0 0
0 0 0 0 0 0 0 0 0 0 0 0 0 0 0 0 0 0 0 0 0 0 0 0 1 1 1 1 0 0 0 0 0 0 0 0 0 0 0 0 0 0 0 0
Wind_Speed
6 7 6 4 4 4 4 4 3 2 1 2 1 1 3 5 5 4 5 5 4 4 4 4 4 4 4 4 3 2 1 1 1 0 1 1 1 0 1 0 1 1 1 1
8 7 4 3 3 5 5 5 2 1 1 3 1 1 3 4 4 4 4 4 5 4 5 5 4 4 5 5 4 3 3 2 2 1 0 0 0 0 1 1 1 0 1 1
7 1 2 5 6 6 5 5 3 2 2 4 4 4 5 4 4 4 4 4 4 4 5 5 5 5 5 4 4 3 3 3 2 1 1 1 1 1 0 0 1 0 1 1
5 3 4 6 6 6 4 2 4 4 6 3 4 3 4 4 4 4 4 4 5 5 4 5 5 4 4 4 4 3 3 3 3 2 1 1 1 1 0 0 1 1 1 1
4 4 6 6 4 5 3 1 4 5 6 6 4 6 3 4 2 2 3 4 5 5 5 4 4 4 3 3 3 3 3 3 3 3 2 2 1 1 0 0 1 1 1 1
3 3 4 3 2 3 3 4 4 6 7 5 1 5 1 2 0 1 3 4 4 4 5 4 4 3 3 3 3 3 3 3 3 3 2 2 1 1 1 1 1 1 1 1
7 7 5 4 5 6 7 7 5 5 5 1 2 4 2 3 2 1 2 3 4 4 4 4 4 4 3 3 3 3 4 3 3 3 2 2 1 1 1 1 0 1 1 1
8 7 6 4 5 4 5 7 6 5 4 1 4 3 3 3 3 3 3 4 4 4 4 4 4 4 3 3 3 3 4 3 3 3 2 2 1 1 0 0 1 1 1 1
6 4 5 2 3 5 5 5 6 7 6 5 1 1 3 3 3 3 4 4 4 4 4 4 3 4 3 3 3 3 4 4 4 3 3 2 2 1 0 0 1 1 1 1
5 4 5 4 5 2 4 4 5 6 5 6 3 3 0 3 3 4 4 3 4 4 4 4 4 3 3 3 3 3 3 4 3 3 2 2 2 1 1 1 0 1 1 1
6 7 6 7 7 4 5 6 5 5 6 7 5 1 5 2 2 2 4 4 4 4 4 4 4 4 4 3 4 4 4 3 3 2 2 1 1 1 1 1 1 1 1 1
5 7 5 6 3 4 7 6 7 6 5 6 7 1 5 3 2 2 3 4 4 4 4 4 5 4 4 4 3 3 3 3 2 2 2 2 1 1 1 1 1 1 1 1
4 6 7 7 8 7 6 6 8 8 6 6 8 0 5 3 2 2 3 4 4 4 4 4 4 4 4 3 3 2 2 2 2 2 2 2 1 1 1 1 1 1 1 1
5 7 8 7 4 3 6 7 8 9 7 6 6 4 1 1 1 2 3 4 4 4 4 4 4 4 3 3 3 2 2 1 2 1 1 1 1 1 0 0 1 1 2 2
6 7 6 6 4 5 6 7 7 9 8 8 6 5 2 1 1 1 3 4 4 4 4 3 3 3 3 3 3 2 2 2 2 1 1 1 1 1 0 0 0 1 1 1
4 5 6 6 5 5 7 7 8 7 7 7 6 4 2 1 1 2 2 4 4 4 3 3 3 3 3 3 2 3 2 2 2 1 1 1 1 1 1 0 0 0 1 1
5 6 7 7 5 8 8 6 7 6 5 6 6 1 1 1 1 1 2 3 3 3 3 3 3 2 2 2 2 2 2 2 2 1 1 1 1 1 1 1 1 1 1 1
6 6 6 6 7 10 1 1 4 5 4 4 3 0 1 1 1 1 2 2 2 2 2 2 2 2 2 2 2 2 2 1 1 1 1 1 1 1 1 1 1 1 1 1
5 6 6 7 9 7 4 4 4 6 5 2 2 1 2 2 3 4 2 1 1 1 2 2 1 1 2 1 2 2 2 1 1 1 0 1 1 1 1 1 1 2 2 2
5 7 8 7 9 7 2 3 2 6 6 2 2 2 2 3 4 2 3 2 3 3 3 2 2 2 2 1 1 1 1 1 1 1 1 1 2 2 2 2 2 1 2 2
7 7 9 9 9 4 3 2 4 7 1 3 2 2 3 2 4 3 4 3 4 4 4 3 3 3 3 1 1 0 0 1 1 1 1 1 1 2 2 1 2 2 2 2
7 7 7 8 9 4 4 2 3 3 4 1 1 2 2 2 3 3 3 3 4 4 4 4 3 3 2 1 0 0 0 1 1 1 1 1 1 2 1 1 2 2 2 2
5 4 3 3 2 4 2 1 3 2 1 1 1 2 3 3 3 3 3 3 3 3 3 3 3 3 2 1 1 1 1 1 1 1 1 1 1 1 1 2 2 2 2 2
3 1 3 3 2 1 1 1 0 0 0 0 2 3 4 4 4 4 3 3 3 2 2 2 2 2 2 2 1 1 1 1 1 1 1 1 2 2 1 2 2 2 2 2
1 3 4 4 2 3 3 1 1 1 1 2 2 2 2 3 3 3 3 2 2 2 2 2 1 1 1 1 1 1 1 1 1 1 2 2 2 1 2 1 1 2 1 2
4 5 6 4 2 3 2 2 2 2 2 2 1 2 3 3 3 3 3 2 2 2 2 1 1 0 1 0 1 1 2 2 2 2 2 2 2 1 2 1 1 1 1 1
Wind_Direction
200 224 226 233 256 296 299 291 296 359 5 279 277 198 147 169 185 176 175 175 173 169 159 160 171 176 175 174 174 176 178 147 185 191 208 172 143 83 76 61 56 355 322 291
206 217 233 252 234 246 255 262 258 158 106 284 272 213 155 171 190 190 191 187 180 168 164 166 175 179 185 186 189 184 187 178 194 173 199 198 240 130 98 17 63 351 347 312
232 133 169 216 212 234 252 271 282 281 244 230 252 198 155 154 171 180 190 187 180 176 171 168 175 181 189 193 194 193 192 185 195 201 191 153 171 227 150 135 83 29 9 337
228 204 212 228 229 254 257 294 272 248 252 246 272 280 139 151 162 176 187 190 183 176 174 171 174 181 185 191 191 192 188 186 186 193 201 203 234 277 341 328 60 27 20 346
198 195 219 235 246 256 291 297 258 256 263 265 239 272 124 151 183 174 179 186 181 175 173 173 173 176 181 178 179 175 177 183 179 189 191 220 253 273 304 345 41 317 43 6
231 205 251 264 252 230 192 205 215 234 246 250 283 279 80 108 263 135 139 158 171 173 167 164 158 157 160 155 156 158 161 172 174 177 180 203 216 256 303 312 350 328 47 37
202 199 193 214 213 190 222 241 238 226 227 233 122 263 33 59 61 71 124 141 151 161 160 160 160 156 157 151 146 144 145 152 158 160 169 185 194 205 214 271 314 318 345 18
214 197 183 205 251 247 238 261 278 292 299 268 179 255 77 77 87 99 112 123 136 141 143 153 162 162 161 154 149 149 151 158 162 161 161 160 175 209 187 248 310 333 338 9
233 195 145 184 244 259 232 248 291 285 280 279 256 171 156 137 139 127 121 121 131 137 142 146 154 163 160 158 154 158 162 164 166 168 170 167 175 209 206 208 266 315 343 342
253 231 182 173 199 201 281 268 253 271 287 281 259 246 118 143 165 154 149 139 133 143 144 140 142 141 144 149 147 154 160 167 169 169 185 175 183 191 200 238 284 324 320 322
248 236 195 198 222 221 206 221 251 268 288 292 289 24 61 89 133 165 158 145 138 141 135 135 138 133 128 127 140 145 146 154 161 167 179 189 188 189 197 214 235 251 266 272
232 250 231 214 205 266 248 248 240 256 260 270 286 29 80 69 79 130 145 135 128 131 128 128 130 132 130 124 114 115 127 140 152 160 169 168 169 179 208 209 235 242 252 258
210 240 227 207 191 193 223 237 247 259 259 262 273 189 101 86 77 97 135 135 130 128 124 125 124 128 126 120 111 107 114 122 135 153 163 157 167 183 209 232 258 241 241 267
246 247 258 265 278 216 218 224 240 250 254 259 270 285 271 37 63 122 137 141 140 137 135 126 126 125 121 113 99 86 76 84 108 121 133 136 150 177 226 252 260 255 249 253
240 241 250 274 280 258 247 236 228 246 270 280 287 292 320 342 347 141 154 148 148 146 137 129 129 119 119 107 99 85 67 60 65 81 79 74 62 62 50 338 283 273 266 251
241 247 240 243 240 240 244 239 232 239 255 263 271 281 39 10 97 131 160 167 164 154 143 138 136 122 119 116 107 95 81 79 81 68 50 53 51 40 20 7 357 339 343 332
218 230 244 242 227 236 233 230 230 229 244 262 270 321 132 164 127 173 182 182 177 163 159 156 146 134 132 128 120 116 103 99 94 79 50 34 38 37 14 0 2 345 337 337
227 236 243 244 229 239 185 107 244 239 245 260 285 305 170 127 132 134 157 167 168 160 152 146 143 138 136 126 128 128 119 115 112 90 48 19 327 324 316 313 322 296 280 288
225 227 242 244 239 238 194 185 219 237 238 254 248 172 144 118 157 135 94 77 119 117 114 119 117 102 101 111 119 133 135 132 136 128 208 283 279 278 276 270 279 288 286 278
192 221 239 239 254 251 150 122 234 250 223 151 172 169 166 190 232 120 103 98 91 88 93 95 94 87 78 69 103 145 155 150 170 193 214 239 262 264 264 268 271 270 267 269
194 208 230 237 244 244 78 118 213 237 52 102 170 179 187 206 352 71 114 116 108 100 93 88 83 78 74 63 48 102 193 206 221 217 226 239 250 252 256 263 258 251 254 267
228 218 219 234 243 220 96 192 251 13 32 104 142 149 142 100 86 108 122 120 118 106 94 92 91 83 73 64 64 15 1 304 248 217 228 249 269 271 240 247 251 252 258 251
245 292 280 272 309 58 72 15 19 9 12 130 160 146 151 143 131 132 139 132 122 113 104 102 98 88 70 51 14 354 350 307 262 223 242 253 261 269 259 245 242 236 239 256
184 244 250 243 187 155 171 175 164 340 21 149 163 163 172 162 149 149 146 141 139 128 123 123 110 85 60 46 23 355 334 309 286 277 267 252 253 249 244 260 259 272 282 273
224 204 228 236 234 222 201 194 151 99 90 102 128 149 154 152 155 153 149 149 149 144 131 129 106 72 53 50 38 344 322 297 288 284 266 259 252 253 252 258 322 299 326 324
219 230 246 255 234 246 204 177 169 153 140 129 137 149 148 154 154 149 151 155 167 168 157 156 145 115 50 27 10 338 304 286 275 270 262 263 269 262 249 218 198 114 219 186